This is the latest recevied weather packets stored in our database for station/object N5PLO-10. If no packets are shown the sender has not sent any weather packets the latest 10 day(s).
| Time | Temp. | Humidity | Pressure | Rain* | Wind** | Luminosity | Snow |
|---|---|---|---|---|---|---|---|
| 1777071811 | 28.33° C | 79% | 1011.3 hPa | 0 mm | - | 94 W/m² | - |
| 1777071507 | 28.89° C | 79% | 1011.3 hPa | 0 mm | - | 86 W/m² | - |
| 1777071201 | 28.33° C | 80% | 1011.3 hPa | 0 mm | - | 111 W/m² | - |
| 1777070898 | 28.33° C | 79% | 1011 hPa | 0 mm | - | 118 W/m² | - |
| 1777070595 | 28.33° C | 79% | 1010.8 hPa | 0 mm | - | 97 W/m² | - |
| 1777070289 | 28.89° C | 78% | 1011 hPa | 0 mm | - | 113 W/m² | - |
| 1777069989 | 28.89° C | 78% | 1011.1 hPa | 0 mm | - | 122 W/m² | - |
| 1777069683 | 29.44° C | 77% | 1010.9 hPa | 0 mm | - | 232 W/m² | - |
| 1777069378 | 29.44° C | 76% | 1011.1 hPa | 0 mm | - | 166 W/m² | - |
| 1777069076 | 29.44° C | 74% | 1011.2 hPa | 0 mm | - | 173 W/m² | - |
| 1777068771 | 29.44° C | 74% | 1011.3 hPa | 0 mm | - | 172 W/m² | - |
| 1777068467 | 29.44° C | 74% | 1011 hPa | 0 mm | - | 163 W/m² | - |
| 1777068165 | 29.44° C | 75% | 1011.1 hPa | 0 mm | - | 184 W/m² | - |
| 1777067855 | 28.89° C | 75% | 1011.4 hPa | 0 mm | - | 158 W/m² | - |
| 1777067554 | 28.89° C | 75% | - | 0 mm | - | - | - |
| 1777067252 | 28.89° C | 75% | - | 0 mm | - | - | - |
| 1777066944 | 28.89° C | 74% | - | 0 mm | - | - | - |
| 1777066638 | 28.89° C | 74% | - | 0 mm | - | - | - |
| 1777066335 | 28.89° C | 75% | - | 0 mm | - | - | - |
| 1777066030 | 28.89° C | 73% | - | 0 mm | - | - | - |
| 1777065724 | 28.89° C | 74% | - | 0 mm | - | - | - |
| 1777065421 | 28.89° C | 73% | - | 0 mm | - | - | - |
| 1777065114 | 28.89° C | 73% | - | 0 mm | - | - | - |
| 1777064812 | 28.89° C | 73% | - | 0 mm | - | - | - |
| 1777064508 | 29.44° C | 73% | - | 0 mm | - | - | - |
* Rain latest hour (hover to see other rain measurements)
** Current wind speed in m/s (hover to see current wind gust speed)